User: anonymous   Login
Location: Taipo
(41.0000°S, 175.9500°E)
Time: 16:48:23
(UTC+00:00)
Language:

NOSS 3-3 (A) - Orbit

View from above orbital plane
View from above orbital plane
View from above satellite
View from above satellite

Ground track
Ground track

The orbit data is extracted from the following two-line orbital elements,

1 28537U 05004A   24169.95751805 0.00000050  00000-0  44794-4 0    06
2 28537  63.3973 135.4414 0487030   1.9250 358.0750 13.40979183    02
Epoch (UTC): 17 June 2024 22:58:49
Eccentricity: 0.0487030
inclination: 63.3973°
perigee height: 741 km
apogee height: 1470 km
right ascension of ascending node: 135.4414°
argument of perigee: 1.9250°
revolutions per day: 13.40979183
mean anomaly at epoch: 358.0750°
orbit number at epoch: 0

The dashed part of the orbit path shows where the satellite is in the earth's shadow,  

DLR